El Dorado, AR

12:49 AM CDT on July 22, 2017 (GMT -0500)
South Arkansas Regional At Goodwin

Weather History for KELD - May, 2013

Change the Weather History Date:

Saturday, May 11, 2013

  Actual Average Record
Temperature  
Mean Temperature 66 °F 70 °F  
Max Temperature 78 °F 81 °F 92 °F (1967)
Min Temperature 54 °F 59 °F 42 °F (1961)
Degree Days  
Heating Degree Days 0 1  
Month to date heating degree days 56 12  
Since 1 July heating degree days 2707 2666  
Cooling Degree Days 1 6  
Month to date cooling degree days 16 53  
Year to date cooling degree days 95 152  
Growing Degree Days 18 (Base 50)    
Moisture  
Dew Point 59 °F    
Average Humidity 72    
Maximum Humidity 100    
Minimum Humidity 43    
Precipitation  
Precipitation 0.00 in 0.17 in 2.42 in (2009)
Month to date precipitation 0.35 1.83  
Year to date precipitation 14.38 19.76  
Snow  
Snow 0.00 in - - ()
Month to date snowfall 0.0  
Since 1 July snowfall 0.1  
Snow Depth 0.00 in    
Sea Level Pressure  
Sea Level Pressure 30.04 in    
Wind  
Wind Speed 5 mph (NNW)    
Max Wind Speed 14 mph    
Max Gust Speed 18 mph    
Visibility 8 miles    
Events Fog    
T = Trace of Precipitation, MM = Missing Value Source: NWS Daily Summary

Daily Weather History Graph

Daily Weather History Graph

Search for Another Location

Airport or City:

Trip Planner

Search our weather history database for the weather conditions in past years. The results will help you decide how hot, cold, wet, or windy it might be!

Date:

Astronomy

May. 11, 2013 Rise Set
Actual Time 6:14 AM CDT 8:01 PM CDT
Civil Twilight 5:47 AM CDT 8:28 PM CDT
Nautical Twilight 5:14 AM CDT 9:01 PM CDT
Astronomical Twilight 4:39 AM CDT 9:36 PM CDT
Moon 7:23 AM CDT (5/11) 9:40 PM CDT (5/11)
Length of Visible Light 14h 41m
Length of Day
13h 47m
Waxing Crescent, 3% of the Moon is Illuminated
May 11
Waxing Crescent
May 17
First Quarter
May 24
Full
May 31
Last Quarter
Jun 8
New

Hourly Weather History & Observations

Time (CDT) Temp. Dew Point Humidity Pressure Visibility Wind Dir Wind Speed Gust Speed Precip Events Conditions
12:23 AM 62.6 °F 62.6 °F 100% 30.01 in 5.0 mi Calm Calm - N/A   Scattered Clouds
12:32 AM 62.6 °F 62.6 °F 100% 30.02 in 5.0 mi Calm Calm - N/A   Mostly Cloudy
12:43 AM 62.6 °F 62.6 °F 100% 30.02 in 1.8 mi Calm Calm - N/A   Overcast
12:53 AM 63.0 °F 63.0 °F 100% 30.01 in 0.5 mi Calm Calm - N/A Fog Fog
1:07 AM 62.6 °F 62.6 °F 100% 30.02 in 1.5 mi Calm Calm - N/A   Mostly Cloudy
1:16 AM 62.6 °F 62.6 °F 100% 30.01 in 1.8 mi Calm Calm - N/A   Scattered Clouds
1:22 AM 62.6 °F 62.6 °F 100% 30.01 in 3.0 mi Calm Calm - N/A   Partly Cloudy
1:53 AM 62.1 °F 62.1 °F 100% 30.01 in 6.0 mi WSW 3.5 mph - N/A   Clear
2:53 AM 62.1 °F 61.0 °F 96% 29.96 in 5.0 mi Calm Calm - N/A   Clear
3:53 AM 61.0 °F 61.0 °F 100% 29.97 in 8.0 mi WNW 5.8 mph - N/A   Clear
4:53 AM 62.1 °F 61.0 °F 96% 29.98 in 9.0 mi WNW 5.8 mph - 0.01 in   Clear
5:53 AM 60.1 °F 60.1 °F 100% 29.99 in 8.0 mi NNW 5.8 mph - N/A   Clear
6:53 AM 60.1 °F 59.0 °F 96% 30.02 in 7.0 mi NNW 6.9 mph - N/A   Clear
7:53 AM 61.0 °F 59.0 °F 93% 30.04 in 9.0 mi North 4.6 mph - N/A   Clear
8:53 AM 62.1 °F 59.0 °F 90% 30.06 in 10.0 mi North 10.4 mph 18.4 mph N/A   Clear
9:53 AM 66.9 °F 59.0 °F 76% 30.06 in 10.0 mi North 10.4 mph - N/A   Clear
10:53 AM 70.0 °F 57.9 °F 65% 30.06 in 10.0 mi North 11.5 mph 17.3 mph N/A   Partly Cloudy
11:53 AM 72.0 °F 57.9 °F 61% 30.06 in 10.0 mi North 8.1 mph - N/A   Clear
12:53 PM 73.0 °F 57.9 °F 59% 30.06 in 10.0 mi Variable 6.9 mph - N/A   Mostly Cloudy
1:53 PM 72.0 °F 57.9 °F 61% 30.07 in 10.0 mi NW 5.8 mph - N/A   Mostly Cloudy
2:53 PM 75.9 °F 57.0 °F 52% 30.06 in 10.0 mi North 5.8 mph - N/A   Mostly Cloudy
3:53 PM 75.9 °F 55.9 °F 50% 30.05 in 10.0 mi North 8.1 mph - N/A   Mostly Cloudy
4:53 PM 78.1 °F 55.0 °F 45% 30.04 in 10.0 mi Variable 6.9 mph - N/A   Partly Cloudy
5:53 PM 77.0 °F 53.1 °F 43% 30.04 in 10.0 mi North 6.9 mph - N/A   Scattered Clouds
6:53 PM 75.0 °F 53.1 °F 46% 30.04 in 10.0 mi NNW 3.5 mph - N/A   Clear
7:53 PM 64.9 °F 59.0 °F 81% 30.06 in 10.0 mi Calm Calm - N/A   Clear
8:53 PM 62.6 °F 57.2 °F 82% 30.08 in 10.0 mi Calm Calm - N/A   Clear
9:53 PM 57.9 °F 55.9 °F 93% 30.09 in 10.0 mi Calm Calm - N/A   Clear
10:53 PM 57.0 °F 55.0 °F 93% 30.10 in 10.0 mi Calm Calm - N/A   Clear
11:53 PM 55.0 °F 54.0 °F 96% 30.10 in 10.0 mi Calm Calm - N/A   Clear